User: anonymous   Login
Location: ??????
(55.4348°N, 39.2112°E)
Time: 18:40:45
(UTC+00:00)
Language:

NOSS 3-4 (C) - Orbit

View from above orbital plane
View from above orbital plane
View from above satellite
View from above satellite

Ground track
Ground track

The orbit data is extracted from the following two-line orbital elements,

1 31708U 07027C   24156.90567546 0.00000200  00000-0  23159-3 0    03
2 31708  63.4049  66.3625 0389019  21.2397 338.7603 13.40924551    03
Epoch (UTC): 04 June 2024 21:44:10
Eccentricity: 0.0389019
inclination: 63.4049°
perigee height: 814 km
apogee height: 1397 km
right ascension of ascending node: 66.3625°
argument of perigee: 21.2397°
revolutions per day: 13.40924551
mean anomaly at epoch: 338.7603°
orbit number at epoch: 0

The dashed part of the orbit path shows where the satellite is in the earth's shadow,  

DLR